TimeMST,TemperatureF,Dew PointF,Humidity,Sea Level PressureIn,VisibilityMPH,Wind Direction,Wind SpeedMPH,Gust SpeedMPH,PrecipitationIn,Events,Conditions,WindDirDegrees,DateUTC
12:56 AM,26.1,14.0,60,30.16,10.0,Calm,Calm,-,N/A,,Clear,0,2014-01-26 07:56:00
1:56 AM,24.1,10.9,57,30.15,10.0,ESE,4.6,-,N/A,,Clear,110,2014-01-26 08:56:00
2:56 AM,24.1,10.9,57,30.14,10.0,SSE,5.8,-,N/A,,Clear,150,2014-01-26 09:56:00
3:56 AM,23.0,12.9,65,30.14,10.0,Calm,Calm,-,N/A,,Clear,0,2014-01-26 10:56:00
4:56 AM,21.9,10.0,60,30.14,10.0,SE,4.6,-,N/A,,Clear,130,2014-01-26 11:56:00
5:56 AM,21.9,10.9,63,30.17,10.0,SSE,3.5,-,N/A,,Clear,150,2014-01-26 12:56:00
6:56 AM,23.0,10.0,58,30.20,10.0,East,4.6,-,N/A,,Clear,100,2014-01-26 13:56:00
7:56 AM,21.0,8.1,57,30.23,10.0,SE,3.5,-,N/A,,Clear,130,2014-01-26 14:56:00
8:56 AM,28.0,10.9,49,30.21,10.0,Calm,Calm,-,N/A,,Clear,0,2014-01-26 15:56:00
9:56 AM,36.0,12.0,37,30.19,10.0,ESE,3.5,-,N/A,,Clear,120,2014-01-26 16:56:00
10:56 AM,43.0,14.0,31,30.18,10.0,Calm,Calm,-,N/A,,Clear,0,2014-01-26 17:56:00
11:56 AM,50.0,12.0,22,30.13,10.0,Variable,3.5,-,N/A,,Clear,0,2014-01-26 18:56:00
12:56 PM,54.0,10.0,17,30.08,10.0,Variable,3.5,-,N/A,,Clear,0,2014-01-26 19:56:00
1:56 PM,57.0,6.1,13,30.04,10.0,Variable,5.8,-,N/A,,Clear,0,2014-01-26 20:56:00
2:56 PM,57.9,9.0,14,30.01,10.0,NNE,4.6,-,N/A,,Clear,30,2014-01-26 21:56:00
3:56 PM,59.0,8.1,13,29.99,10.0,NNW,6.9,-,N/A,,Clear,340,2014-01-26 22:56:00
4:56 PM,57.0,8.1,14,30.00,10.0,Calm,Calm,-,N/A,,Clear,0,2014-01-26 23:56:00
5:56 PM,53.1,9.0,17,30.01,10.0,North,3.5,-,N/A,,Clear,360,2014-01-27 00:56:00
6:56 PM,37.0,7.0,29,30.07,10.0,SW,6.9,-,N/A,,Clear,220,2014-01-27 01:56:00
7:56 PM,32.0,7.0,35,30.09,10.0,SW,8.1,-,N/A,,Clear,220,2014-01-27 02:56:00
8:56 PM,33.1,10.0,38,30.08,10.0,Calm,Calm,-,N/A,,Clear,0,2014-01-27 03:56:00
9:56 PM,35.1,10.0,35,30.05,10.0,SE,3.5,-,N/A,,Clear,140,2014-01-27 04:56:00
10:56 PM,32.0,10.0,40,30.04,10.0,Calm,Calm,-,N/A,,Clear,0,2014-01-27 05:56:00
11:56 PM,30.0,9.0,41,30.04,10.0,WNW,6.9,-,N/A,,Clear,290,2014-01-27 06:56:00